| time (UTC) | temp C | wind direction | speed KPH | gust KPH | rain 1hr cm | rain 24hr cm | rain mn cm | humidity % | barometer mb |
| 20260507015031 | 18 | 296 | 4.8 | 12.9 | 0.00 | 0.00 | 0.00 | 80 | 1016.3 |
| 20260507014555 | 18 | 286 | 6.4 | 14.5 | 0.00 | 0.00 | 0.00 | 79 | 1016.3 |
| 20260507014035 | 18 | 279 | 4.8 | 14.5 | 0.00 | 0.00 | 0.00 | 79 | 1016.4 |
| 20260507013534 | 18 | 309 | 4.8 | 12.9 | 0.00 | 0.00 | 0.00 | 78 | 1016.3 |
| 20260507013048 | 18 | 302 | 6.4 | 14.5 | 0.00 | 0.00 | 0.00 | 77 | 1016.3 |
| 20260507012532 | 18 | 323 | 6.4 | 14.5 | 0.00 | 0.00 | 0.00 | 78 | 1016.4 |
| 20260507012034 | 18 | 271 | 4.8 | 14.5 | 0.00 | 0.00 | 0.00 | 78 | 1016.4 |
| 20260507011548 | 18 | 312 | 6.4 | 14.5 | 0.00 | 0.00 | 0.00 | 77 | 1016.3 |
| 20260507011031 | 18 | 305 | 6.4 | 12.9 | 0.00 | 0.00 | 0.00 | 77 | 1016.3 |
| 20260507010531 | 18 | 328 | 4.8 | 14.5 | 0.00 | 0.00 | 0.00 | 77 | 1016.2 |
| 20260507010045 | 18 | 309 | 8.0 | 14.5 | 0.00 | 0.00 | 0.00 | 76 | 1016.2 |
| 20260507005531 | 18 | 269 | 4.8 | 14.5 | 0.00 | 0.00 | 0.00 | 76 | 1016.3 |
| 20260507005034 | 18 | 259 | 6.4 | 12.9 | 0.00 | 0.00 | 0.00 | 77 | 1016.2 |
| 20260507004546 | 18 | 309 | 6.4 | 12.9 | 0.00 | 0.00 | 0.00 | 77 | 1016.2 |
| 20260507004035 | 18 | 37 | 6.4 | 17.7 | 0.00 | 0.00 | 0.00 | 77 | 1016.1 |
| 20260507003531 | 18 | 326 | 6.4 | 17.7 | 0.00 | 0.00 | 0.00 | 77 | 1016.2 |
| 20260507003052 | 18 | 304 | 8.0 | 17.7 | 0.00 | 0.00 | 0.00 | 78 | 1016.1 |
| 20260507002531 | 18 | 272 | 8.0 | 20.9 | 0.00 | 0.00 | 0.00 | 78 | 1016.1 |
| 20260507002031 | 18 | 275 | 8.0 | 20.9 | 0.00 | 0.00 | 0.00 | 78 | 1016.2 |
| 20260507001543 | 18 | 251 | 9.7 | 17.7 | 0.00 | 0.00 | 0.00 | 77 | 1016.1 |
| 20260507001034 | 19 | 280 | 9.7 | 19.3 | 0.00 | 0.00 | 0.00 | 78 | 1016.0 |
| 20260507000534 | 19 | 298 | 8.0 | 19.3 | 0.00 | 0.00 | 0.00 | 77 | 1016.0 |
| 20260507000044 | 19 | 271 | 6.4 | 17.7 | 0.00 | 0.00 | 0.00 | 78 | 1015.9 |
| 20260506235531 | 19 | 255 | 8.0 | 17.7 | 0.00 | 0.00 | 0.00 | 77 | 1015.9 |
| 20260506235030 | 19 | 342 | 8.0 | 17.7 | 0.00 | 0.00 | 0.00 | 76 | 1015.9 |
| 20260506234548 | 19 | 290 | 6.4 | 14.5 | 0.00 | 0.00 | 0.00 | 77 | 1015.8 |
| 20260506234036 | 19 | 311 | 6.4 | 16.1 | 0.00 | 0.00 | 0.00 | 77 | 1015.8 |
| 20260506233537 | 19 | 277 | 6.4 | 16.1 | 0.00 | 0.00 | 0.00 | 77 | 1015.8 |
| 20260506233055 | 19 | 306 | 8.0 | 16.1 | 0.00 | 0.00 | 0.00 | 76 | 1015.9 |
| 20260506232535 | 19 | 290 | 8.0 | 14.5 | 0.00 | 0.00 | 0.00 | 76 | 1015.9 |
| 20260506232035 | 19 | 219 | 9.7 | 17.7 | 0.00 | 0.00 | 0.00 | 76 | 1015.9 |
| 20260506231549 | 19 | 276 | 9.7 | 17.7 | 0.00 | 0.00 | 0.00 | 75 | 1016.0 |
| 20260506231036 | 19 | 302 | 6.4 | 22.5 | 0.00 | 0.00 | 0.00 | 76 | 1016.1 |
| 20260506230537 | 19 | 298 | 9.7 | 22.5 | 0.00 | 0.00 | 0.00 | 75 | 1016.1 |
| 20260506230052 | 19 | 316 | 9.7 | 22.5 | 0.00 | 0.00 | 0.00 | 75 | 1016.1 |
| 20260506225539 | 19 | 290 | 8.0 | 17.7 | 0.00 | 0.00 | 0.00 | 76 | 1016.0 |
| 20260506225035 | 19 | 292 | 8.0 | 16.1 | 0.00 | 0.00 | 0.00 | 75 | 1016.0 |
| 20260506224548 | 19 | 277 | 6.4 | 19.3 | 0.00 | 0.00 | 0.00 | 74 | 1016.1 |
| 20260506224036 | 19 | 324 | 8.0 | 19.3 | 0.00 | 0.00 | 0.00 | 75 | 1016.1 |
| 20260506223536 | 19 | 308 | 9.7 | 19.3 | 0.00 | 0.00 | 0.00 | 75 | 1016.2 |
| 20260506223048 | 19 | 315 | 11.3 | 22.5 | 0.00 | 0.00 | 0.00 | 75 | 1016.3 |
| 20260506222536 | 19 | 300 | 9.7 | 22.5 | 0.00 | 0.00 | 0.00 | 76 | 1016.3 |
| 20260506222036 | 19 | 289 | 12.9 | 22.5 | 0.00 | 0.00 | 0.00 | 75 | 1016.3 |
| 20260506221544 | 19 | 289 | 9.7 | 17.7 | 0.00 | 0.00 | 0.00 | 75 | 1016.4 |
| 20260506221035 | 19 | 227 | 9.7 | 22.5 | 0.00 | 0.00 | 0.00 | 75 | 1016.3 |
| 20260506220536 | 19 | 264 | 9.7 | 22.5 | 0.00 | 0.00 | 0.00 | 76 | 1016.4 |
| 20260506220046 | 19 | 294 | 11.3 | 22.5 | 0.00 | 0.00 | 0.00 | 75 | 1016.4 |
| 20260506215539 | 19 | 315 | 8.0 | 19.3 | 0.00 | 0.00 | 0.00 | 75 | 1016.4 |
| 20260506215036 | 19 | 277 | 9.7 | 19.3 | 0.00 | 0.00 | 0.00 | 75 | 1016.4 |
| 20260506214553 | 19 | 331 | 11.3 | 19.3 | 0.00 | 0.00 | 0.00 | 75 | 1016.5 |
| 20260506214036 | 19 | 312 | 9.7 | 20.9 | 0.00 | 0.00 | 0.00 | 75 | 1016.5 |
| 20260506213537 | 19 | 279 | 11.3 | 20.9 | 0.00 | 0.00 | 0.00 | 75 | 1016.5 |
| 20260506213102 | 19 | 279 | 12.9 | 20.9 | 0.00 | 0.00 | 0.00 | 73 | 1016.6 |
| 20260506212537 | 19 | 265 | 9.7 | 19.3 | 0.00 | 0.00 | 0.00 | 74 | 1016.7 |
| 20260506212038 | 19 | 252 | 8.0 | 17.7 | 0.00 | 0.00 | 0.00 | 74 | 1016.6 |
| 20260506211548 | 19 | 271 | 8.0 | 19.3 | 0.00 | 0.00 | 0.00 | 73 | 1016.7 |
| 20260506211038 | 19 | 292 | 9.7 | 19.3 | 0.00 | 0.00 | 0.00 | 74 | 1016.7 |
| 20260506210535 | 19 | 294 | 11.3 | 20.9 | 0.00 | 0.00 | 0.00 | 73 | 1016.8 |
| 20260506210049 | 19 | 305 | 9.7 | 20.9 | 0.00 | 0.00 | 0.00 | 74 | 1016.8 |
| 20260506205541 | 19 | 263 | 8.0 | 22.5 | 0.00 | 0.00 | 0.00 | 74 | 1016.8 |
| 20260506205037 | 19 | 248 | 12.9 | 22.5 | 0.00 | 0.00 | 0.00 | 73 | 1016.9 |
| 20260506204550 | 19 | 317 | 11.3 | 19.3 | 0.00 | 0.00 | 0.00 | 74 | 1016.8 |
| 20260506204036 | 19 | 301 | 9.7 | 19.3 | 0.00 | 0.00 | 0.00 | 75 | 1016.8 |
| 20260506203535 | 19 | 253 | 8.0 | 22.5 | 0.00 | 0.00 | 0.00 | 75 | 1016.9 |
| 20260506203045 | 19 | 277 | 8.0 | 22.5 | 0.00 | 0.00 | 0.00 | 75 | 1016.9 |
| 20260506202531 | 19 | 271 | 8.0 | 17.7 | 0.00 | 0.00 | 0.00 | 74 | 1016.9 |
| 20260506202031 | 19 | 255 | 9.7 | 17.7 | 0.00 | 0.00 | 0.00 | 75 | 1016.9 |
| 20260506201542 | 19 | 276 | 11.3 | 17.7 | 0.00 | 0.00 | 0.00 | 74 | 1016.9 |
| 20260506201031 | 19 | 294 | 8.0 | 17.7 | 0.00 | 0.00 | 0.00 | 74 | 1017.0 |
| 20260506200533 | 19 | 311 | 8.0 | 20.9 | 0.00 | 0.00 | 0.00 | 75 | 1017.0 |
| 20260506200047 | 18 | 301 | 11.3 | 20.9 | 0.00 | 0.00 | 0.00 | 74 | 1017.0 |
| 20260506195531 | 18 | 302 | 9.7 | 19.3 | 0.00 | 0.00 | 0.00 | 75 | 1017.1 |
| 20260506195033 | 18 | 290 | 9.7 | 19.3 | 0.00 | 0.00 | 0.00 | 75 | 1017.1 |
| 20260506194546 | 18 | 198 | 9.7 | 19.3 | 0.00 | 0.00 | 0.00 | 75 | 1017.2 |
| 20260506194031 | 18 | 302 | 11.3 | 19.3 | 0.00 | 0.00 | 0.00 | 73 | 1017.3 |
| 20260506193531 | 18 | 299 | 8.0 | 17.7 | 0.00 | 0.00 | 0.00 | 74 | 1017.3 |
| 20260506193048 | 18 | 218 | 9.7 | 17.7 | 0.00 | 0.00 | 0.00 | 73 | 1017.4 |
| 20260506192534 | 19 | 291 | 8.0 | 17.7 | 0.00 | 0.00 | 0.00 | 72 | 1017.4 |
| 20260506192034 | 19 | 258 | 9.7 | 16.1 | 0.00 | 0.00 | 0.00 | 72 | 1017.5 |
| 20260506191553 | 19 | 306 | 6.4 | 16.1 | 0.00 | 0.00 | 0.00 | 72 | 1017.6 |
| 20260506191032 | 19 | 267 | 6.4 | 14.5 | 0.00 | 0.00 | 0.00 | 71 | 1017.6 |
| 20260506190532 | 19 | 283 | 6.4 | 14.5 | 0.00 | 0.00 | 0.00 | 72 | 1017.6 |
| 20260506190050 | 18 | 296 | 6.4 | 16.1 | 0.00 | 0.00 | 0.00 | 71 | 1017.6 |
| 20260506185531 | 18 | 278 | 8.0 | 16.1 | 0.00 | 0.00 | 0.00 | 71 | 1017.6 |
| 20260506185031 | 18 | 222 | 6.4 | 14.5 | 0.00 | 0.00 | 0.00 | 70 | 1017.7 |
| 20260506184546 | 19 | 263 | 6.4 | 14.5 | 0.00 | 0.00 | 0.00 | 72 | 1017.8 |
| 20260506184032 | 19 | 237 | 6.4 | 16.1 | 0.00 | 0.00 | 0.00 | 71 | 1017.9 |
| 20260506183532 | 18 | 335 | 6.4 | 16.1 | 0.00 | 0.00 | 0.00 | 72 | 1017.9 |
| 20260506183045 | 18 | 270 | 4.8 | 12.9 | 0.00 | 0.00 | 0.00 | 73 | 1018.0 |
| 20260506182532 | 18 | 252 | 6.4 | 12.9 | 0.00 | 0.00 | 0.00 | 73 | 1018.0 |
| 20260506182031 | 18 | 257 | 6.4 | 12.9 | 0.00 | 0.00 | 0.00 | 73 | 1018.0 |
| 20260506181548 | 18 | 284 | 4.8 | 12.9 | 0.00 | 0.00 | 0.00 | 72 | 1018.0 |
| 20260506181032 | 18 | 306 | 4.8 | 12.9 | 0.00 | 0.00 | 0.00 | 74 | 1018.1 |
| 20260506180534 | 18 | 286 | 6.4 | 12.9 | 0.00 | 0.00 | 0.00 | 75 | 1018.2 |
| 20260506180050 | 18 | 267 | 6.4 | 12.9 | 0.00 | 0.00 | 0.00 | 73 | 1018.2 |
| 20260506175533 | 17 | 275 | 3.2 | 12.9 | 0.00 | 0.00 | 0.00 | 74 | 1018.2 |
| 20260506175031 | 17 | 302 | 4.8 | 12.9 | 0.00 | 0.00 | 0.00 | 75 | 1018.2 |
| 20260506174550 | 17 | 278 | 4.8 | 12.9 | 0.00 | 0.00 | 0.00 | 75 | 1018.2 |
| 20260506174031 | 17 | 273 | 4.8 | 12.9 | 0.00 | 0.00 | 0.00 | 75 | 1018.2 |
| 20260506173531 | 17 | 263 | 6.4 | 12.9 | 0.00 | 0.00 | 0.00 | 75 | 1018.3 |
| 20260506173058 | 17 | 222 | 4.8 | 12.9 | 0.00 | 0.00 | 0.00 | 75 | 1018.4 |
| 20260506172536 | 17 | 232 | 4.8 | 12.9 | 0.00 | 0.00 | 0.00 | 76 | 1018.4 |
| 20260506172036 | 17 | 265 | 4.8 | 12.9 | 0.00 | 0.00 | 0.00 | 76 | 1018.5 |
| 20260506171558 | 17 | 252 | 4.8 | 12.9 | 0.00 | 0.00 | 0.00 | 77 | 1018.5 |
| 20260506171036 | 17 | 242 | 4.8 | 12.9 | 0.00 | 0.00 | 0.00 | 77 | 1018.4 |
| 20260506170535 | 16 | 241 | 6.4 | 12.9 | 0.00 | 0.00 | 0.00 | 77 | 1018.4 |
| 20260506170104 | 16 | 263 | 4.8 | 12.9 | 0.00 | 0.00 | 0.00 | 76 | 1018.4 |
| 20260506165536 | 16 | 266 | 4.8 | 14.5 | 0.00 | 0.00 | 0.00 | 77 | 1018.4 |
| 20260506165036 | 16 | 305 | 3.2 | 14.5 | 0.00 | 0.00 | 0.00 | 77 | 1018.4 |
| 20260506164548 | 16 | 285 | 4.8 | 11.3 | 0.00 | 0.00 | 0.00 | 78 | 1018.4 |
| 20260506164038 | 16 | 308 | 1.6 | 11.3 | 0.00 | 0.00 | 0.00 | 77 | 1018.4 |
| 20260506163540 | 16 | 289 | 4.8 | 11.3 | 0.00 | 0.00 | 0.00 | 78 | 1018.4 |
| 20260506163111 | 16 | 257 | 3.2 | 11.3 | 0.00 | 0.00 | 0.00 | 78 | 1018.4 |
| 20260506162538 | 16 | 281 | 4.8 | 11.3 | 0.00 | 0.00 | 0.00 | 79 | 1018.4 |
| 20260506162039 | 16 | 0 | 0.0 | 0.0 | 0.00 | 0.00 | 0.00 | 78 | 1018.4 |
| 20260506161545 | 16 | 0 | 0.0 | 1.6 | 0.00 | 0.00 | 0.00 | 79 | 1018.4 |
| 20260506161037 | 16 | 0 | 0.0 | 1.6 | 0.00 | 0.00 | 0.00 | 79 | 1018.3 |
| 20260506160535 | 15 | 0 | 0.0 | 1.6 | 0.00 | 0.00 | 0.00 | 80 | 1018.4 |
| 20260506160045 | 15 | 0 | 0.0 | 0.0 | 0.00 | 0.00 | 0.00 | 80 | 1018.3 |
| 20260506155535 | 15 | 0 | 0.0 | 0.0 | 0.00 | 0.00 | 0.00 | 81 | 1018.3 |
| 20260506155036 | 15 | 0 | 0.0 | 0.0 | 0.00 | 0.00 | 0.00 | 81 | 1018.3 |
| 20260506154607 | 15 | 0 | 0.0 | 0.0 | 0.00 | 0.00 | 0.00 | 81 | 1018.3 |
| 20260506154036 | 15 | 0 | 0.0 | 0.0 | 0.00 | 0.00 | 0.00 | 82 | 1018.3 |
| 20260506153536 | 15 | 0 | 0.0 | 0.0 | 0.00 | 0.00 | 0.00 | 82 | 1018.3 |
| 20260506153054 | 14 | 0 | 0.0 | 0.0 | 0.00 | 0.00 | 0.00 | 82 | 1018.3 |
| 20260506152535 | 14 | 0 | 0.0 | 0.0 | 0.00 | 0.00 | 0.00 | 82 | 1018.2 |
| 20260506152035 | 14 | 0 | 0.0 | 0.0 | 0.00 | 0.00 | 0.00 | 82 | 1018.2 |
| 20260506151552 | 14 | 0 | 0.0 | 0.0 | 0.00 | 0.00 | 0.00 | 83 | 1018.3 |
| 20260506151035 | 13 | 0 | 0.0 | 0.0 | 0.00 | 0.00 | 0.00 | 83 | 1018.3 |
| 20260506150536 | 13 | 0 | 0.0 | 0.0 | 0.00 | 0.00 | 0.00 | 84 | 1018.3 |
| 20260506150045 | 13 | 0 | 0.0 | 0.0 | 0.00 | 0.00 | 0.00 | 84 | 1018.3 |
| 20260506145536 | 13 | 0 | 0.0 | 0.0 | 0.00 | 0.00 | 0.00 | 84 | 1018.4 |
| 20260506145035 | 13 | 0 | 0.0 | 0.0 | 0.00 | 0.00 | 0.00 | 84 | 1018.3 |
| 20260506144546 | 13 | 0 | 0.0 | 0.0 | 0.00 | 0.00 | 0.00 | 85 | 1018.3 |
| 20260506144035 | 13 | 0 | 0.0 | 0.0 | 0.00 | 0.00 | 0.00 | 85 | 1018.3 |
| 20260506143539 | 13 | 0 | 0.0 | 0.0 | 0.00 | 0.00 | 0.00 | 85 | 1018.3 |
| 20260506143104 | 12 | 0 | 0.0 | 0.0 | 0.00 | 0.00 | 0.00 | 85 | 1018.2 |
| 20260506142540 | 12 | 0 | 0.0 | 0.0 | 0.00 | 0.00 | 0.00 | 85 | 1018.2 |
| 20260506142035 | 12 | 0 | 0.0 | 0.0 | 0.00 | 0.00 | 0.00 | 86 | 1018.1 |
| 20260506141550 | 12 | 0 | 0.0 | 0.0 | 0.00 | 0.00 | 0.00 | 86 | 1018.1 |
| 20260506141035 | 12 | 0 | 0.0 | 0.0 | 0.00 | 0.00 | 0.00 | 86 | 1018.1 |
| 20260506140539 | 12 | 0 | 0.0 | 0.0 | 0.00 | 0.00 | 0.00 | 86 | 1018.1 |
| 20260506140047 | 12 | 0 | 0.0 | 0.0 | 0.00 | 0.00 | 0.00 | 86 | 1018.1 |
| 20260506135534 | 12 | 0 | 0.0 | 0.0 | 0.00 | 0.10 | 0.00 | 86 | 1018.0 |
| 20260506135035 | 12 | 0 | 0.0 | 0.0 | 0.00 | 0.10 | 0.00 | 86 | 1018.0 |
| 20260506134548 | 12 | 0 | 0.0 | 0.0 | 0.00 | 0.10 | 0.00 | 86 | 1017.9 |
| 20260506134035 | 12 | 0 | 0.0 | 0.0 | 0.00 | 0.10 | 0.00 | 86 | 1017.9 |
| 20260506133534 | 12 | 0 | 0.0 | 0.0 | 0.00 | 0.10 | 0.00 | 86 | 1017.8 |
| 20260506133043 | 12 | 0 | 0.0 | 0.0 | 0.00 | 0.10 | 0.00 | 86 | 1017.9 |
| 20260506132535 | 12 | 0 | 0.0 | 0.0 | 0.00 | 0.10 | 0.00 | 85 | 1017.8 |
| 20260506132035 | 12 | 0 | 0.0 | 0.0 | 0.00 | 0.10 | 0.00 | 85 | 1017.7 |
| 20260506131548 | 12 | 0 | 0.0 | 0.0 | 0.00 | 0.10 | 0.00 | 85 | 1017.6 |
| 20260506131032 | 12 | 0 | 0.0 | 0.0 | 0.00 | 0.10 | 0.00 | 85 | 1017.5 |
| 20260506130536 | 12 | 0 | 0.0 | 0.0 | 0.00 | 0.10 | 0.00 | 85 | 1017.4 |
| 20260506130052 | 12 | 0 | 0.0 | 0.0 | 0.00 | 0.10 | 0.00 | 85 | 1017.3 |
| 20260506125539 | 12 | 0 | 0.0 | 0.0 | 0.00 | 0.13 | 0.00 | 85 | 1017.3 |
| 20260506125037 | 12 | 0 | 0.0 | 0.0 | 0.00 | 0.13 | 0.00 | 85 | 1017.2 |
| 20260506124546 | 12 | 0 | 0.0 | 0.0 | 0.00 | 0.13 | 0.00 | 85 | 1017.2 |
| 20260506124035 | 12 | 0 | 0.0 | 0.0 | 0.00 | 0.13 | 0.00 | 85 | 1017.1 |
| 20260506123535 | 12 | 0 | 0.0 | 0.0 | 0.00 | 0.13 | 0.00 | 85 | 1017.1 |
| 20260506123048 | 12 | 0 | 0.0 | 0.0 | 0.00 | 0.13 | 0.00 | 85 | 1017.1 |
| 20260506122534 | 12 | 0 | 0.0 | 0.0 | 0.00 | 0.13 | 0.00 | 85 | 1017.0 |
| 20260506122034 | 12 | 0 | 0.0 | 0.0 | 0.00 | 0.13 | 0.00 | 84 | 1017.1 |
| 20260506121546 | 12 | 0 | 0.0 | 0.0 | 0.00 | 0.13 | 0.00 | 84 | 1017.0 |
| 20260506121035 | 12 | 0 | 0.0 | 0.0 | 0.00 | 0.13 | 0.00 | 85 | 1017.0 |
| 20260506120535 | 12 | 0 | 0.0 | 0.0 | 0.00 | 0.13 | 0.00 | 84 | 1017.0 |
| 20260506120058 | 12 | 0 | 0.0 | 0.0 | 0.00 | 0.13 | 0.00 | 84 | 1017.0 |
| 20260506115535 | 12 | 0 | 0.0 | 0.0 | 0.00 | 0.25 | 0.00 | 84 | 1017.0 |
| 20260506115035 | 12 | 0 | 0.0 | 0.0 | 0.00 | 0.25 | 0.00 | 84 | 1017.0 |
| 20260506114557 | 12 | 0 | 0.0 | 0.0 | 0.00 | 0.25 | 0.00 | 84 | 1017.0 |
| 20260506114032 | 12 | 0 | 0.0 | 0.0 | 0.00 | 0.25 | 0.00 | 84 | 1017.0 |
| 20260506113537 | 12 | 0 | 0.0 | 0.0 | 0.00 | 0.25 | 0.00 | 84 | 1017.0 |
| 20260506113047 | 12 | 0 | 0.0 | 0.0 | 0.00 | 0.25 | 0.00 | 84 | 1017.0 |
| 20260506112534 | 12 | 0 | 0.0 | 0.0 | 0.00 | 0.25 | 0.00 | 84 | 1017.0 |
| 20260506112037 | 12 | 0 | 0.0 | 0.0 | 0.00 | 0.25 | 0.00 | 84 | 1017.0 |
| 20260506111549 | 12 | 0 | 0.0 | 0.0 | 0.00 | 0.25 | 0.00 | 84 | 1017.0 |
| 20260506111035 | 12 | 0 | 0.0 | 0.0 | 0.00 | 0.25 | 0.00 | 84 | 1017.0 |
| 20260506110535 | 12 | 0 | 0.0 | 0.0 | 0.00 | 0.25 | 0.00 | 83 | 1017.0 |
| 20260506110054 | 12 | 0 | 0.0 | 0.0 | 0.00 | 0.25 | 0.00 | 83 | 1017.0 |
| 20260506105535 | 12 | 0 | 0.0 | 0.0 | 0.00 | 0.51 | 0.00 | 83 | 1016.9 |
| 20260506105034 | 12 | 0 | 0.0 | 0.0 | 0.00 | 0.51 | 0.00 | 83 | 1017.0 |
| 20260506104546 | 12 | 0 | 0.0 | 0.0 | 0.00 | 0.51 | 0.00 | 83 | 1017.0 |
| 20260506104032 | 12 | 0 | 0.0 | 0.0 | 0.00 | 0.51 | 0.00 | 83 | 1017.0 |
| 20260506103536 | 13 | 0 | 0.0 | 0.0 | 0.00 | 0.51 | 0.00 | 83 | 1017.0 |
| 20260506103048 | 13 | 0 | 0.0 | 0.0 | 0.00 | 0.51 | 0.00 | 83 | 1016.9 |
| 20260506102536 | 13 | 0 | 0.0 | 0.0 | 0.00 | 0.51 | 0.00 | 83 | 1017.0 |
| 20260506102036 | 13 | 0 | 0.0 | 0.0 | 0.00 | 0.51 | 0.00 | 83 | 1017.0 |
| 20260506101556 | 13 | 0 | 0.0 | 0.0 | 0.00 | 0.51 | 0.00 | 82 | 1017.0 |
| 20260506101038 | 13 | 0 | 0.0 | 0.0 | 0.00 | 0.51 | 0.00 | 82 | 1016.9 |
| 20260506100535 | 13 | 0 | 0.0 | 0.0 | 0.00 | 0.51 | 0.00 | 82 | 1016.8 |
| 20260506100048 | 13 | 0 | 0.0 | 0.0 | 0.00 | 0.51 | 0.00 | 82 | 1016.9 |
| 20260506095536 | 13 | 0 | 0.0 | 0.0 | 0.00 | 0.51 | 0.00 | 82 | 1016.9 |
| 20260506095037 | 13 | 0 | 0.0 | 0.0 | 0.00 | 0.51 | 0.00 | 82 | 1016.9 |
| 20260506094606 | 13 | 0 | 0.0 | 0.0 | 0.00 | 0.51 | 0.00 | 82 | 1016.8 |
| 20260506094032 | 13 | 0 | 0.0 | 0.0 | 0.00 | 0.51 | 0.00 | 81 | 1016.9 |
| 20260506093537 | 13 | 0 | 0.0 | 0.0 | 0.00 | 0.51 | 0.00 | 81 | 1016.8 |
| 20260506093049 | 13 | 0 | 0.0 | 0.0 | 0.00 | 0.51 | 0.00 | 81 | 1016.9 |
| 20260506092535 | 13 | 0 | 0.0 | 0.0 | 0.00 | 0.51 | 0.00 | 81 | 1017.0 |
| 20260506092035 | 13 | 0 | 0.0 | 0.0 | 0.00 | 0.51 | 0.00 | 81 | 1017.0 |
| 20260506091542 | 13 | 0 | 0.0 | 0.0 | 0.00 | 0.51 | 0.00 | 81 | 1017.0 |
| 20260506091035 | 13 | 0 | 0.0 | 0.0 | 0.00 | 0.51 | 0.00 | 81 | 1017.0 |
| 20260506090534 | 13 | 0 | 0.0 | 0.0 | 0.00 | 0.51 | 0.00 | 81 | 1017.1 |
| 20260506090049 | 13 | 0 | 0.0 | 0.0 | 0.00 | 0.51 | 0.00 | 81 | 1017.2 |
| 20260506085534 | 13 | 0 | 0.0 | 0.0 | 0.00 | 0.51 | 0.00 | 81 | 1017.2 |
| 20260506085037 | 13 | 0 | 0.0 | 0.0 | 0.00 | 0.51 | 0.00 | 81 | 1017.3 |
| 20260506084548 | 13 | 0 | 0.0 | 0.0 | 0.00 | 0.51 | 0.00 | 81 | 1017.3 |
| 20260506084035 | 13 | 0 | 0.0 | 0.0 | 0.00 | 0.51 | 0.00 | 80 | 1017.3 |
| 20260506083534 | 13 | 0 | 0.0 | 0.0 | 0.00 | 0.51 | 0.00 | 80 | 1017.4 |
| 20260506083049 | 13 | 0 | 0.0 | 0.0 | 0.00 | 0.51 | 0.00 | 80 | 1017.4 |
| 20260506082533 | 13 | 0 | 0.0 | 0.0 | 0.00 | 0.51 | 0.00 | 80 | 1017.5 |
| 20260506082033 | 14 | 0 | 0.0 | 0.0 | 0.00 | 0.51 | 0.00 | 80 | 1017.5 |
| 20260506081547 | 14 | 0 | 0.0 | 0.0 | 0.00 | 0.51 | 0.00 | 80 | 1017.5 |
| 20260506081034 | 14 | 0 | 0.0 | 0.0 | 0.00 | 0.51 | 0.00 | 80 | 1017.6 |
| 20260506080533 | 14 | 0 | 0.0 | 0.0 | 0.00 | 0.51 | 0.00 | 80 | 1017.6 |
| 20260506073047 | 14 | 0 | 0.0 | 1.6 | 0.00 | 0.51 | 0.00 | 78 | 1017.7 |
| 20260506072532 | 14 | 0 | 0.0 | 1.6 | 0.00 | 0.51 | 0.00 | 79 | 1017.8 |
| 20260506072034 | 14 | 0 | 0.0 | 1.6 | 0.00 | 0.51 | 0.00 | 79 | 1017.8 |
| 20260506071550 | 14 | 0 | 0.0 | 0.0 | 0.00 | 0.51 | 0.00 | 79 | 1017.8 |
| 20260506071032 | 15 | 0 | 0.0 | 0.0 | 0.00 | 0.51 | 0.00 | 79 | 1017.8 |
| 20260506070533 | 15 | 0 | 0.0 | 0.0 | 0.00 | 0.51 | 0.00 | 78 | 1017.8 |
| 20260506062033 | 15 | 0 | 0.0 | 0.0 | 0.00 | 0.51 | 0.51 | 78 | 1017.4 |
| 20260506061544 | 15 | 0 | 0.0 | 0.0 | 0.00 | 0.51 | 0.51 | 79 | 1017.4 |
| 20260506061033 | 15 | 0 | 0.0 | 0.0 | 0.00 | 0.51 | 0.51 | 78 | 1017.5 |
| 20260506060534 | 15 | 0 | 0.0 | 0.0 | 0.00 | 0.51 | 0.51 | 78 | 1017.5 |
| 20260506051032 | 15 | 0 | 0.0 | 0.0 | 0.00 | 0.51 | 0.51 | 77 | 1017.3 |
| 20260506050533 | 15 | 0 | 0.0 | 0.0 | 0.00 | 0.51 | 0.51 | 77 | 1017.3 |
| 20260506045032 | 15 | 0 | 0.0 | 3.2 | 0.00 | 0.51 | 0.51 | 78 | 1017.1 |
| 20260506044551 | 15 | 0 | 0.0 | 3.2 | 0.00 | 0.51 | 0.51 | 78 | 1017.0 |
| 20260506044034 | 15 | 0 | 0.0 | 3.2 | 0.00 | 0.51 | 0.51 | 78 | 1017.0 |
| 20260506043536 | 15 | 0 | 0.0 | 3.2 | 0.00 | 0.51 | 0.51 | 78 | 1016.9 |
| 20260506043049 | 15 | 0 | 0.0 | 4.8 | 0.00 | 0.51 | 0.51 | 78 | 1016.9 |
| 20260506042532 | 15 | 282 | 0.0 | 4.8 | 0.00 | 0.51 | 0.51 | 78 | 1016.9 |
| 20260506042033 | 15 | 306 | 1.6 | 4.8 | 0.00 | 0.51 | 0.51 | 78 | 1016.8 |
| 20260506041541 | 15 | 267 | 0.0 | 4.8 | 0.00 | 0.51 | 0.51 | 78 | 1016.7 |
| 20260506041032 | 15 | 236 | 1.6 | 4.8 | 0.00 | 0.51 | 0.51 | 78 | 1016.7 |
| 20260506040534 | 15 | 283 | 1.6 | 3.2 | 0.00 | 0.51 | 0.51 | 77 | 1016.6 |
| 20260506040058 | 15 | 259 | 0.0 | 4.8 | 0.00 | 0.51 | 0.51 | 77 | 1016.5 |
| 20260506035538 | 15 | 0 | 0.0 | 4.8 | 0.00 | 0.51 | 0.51 | 77 | 1016.5 |
| 20260506035036 | 15 | 300 | 1.6 | 8.0 | 0.00 | 0.51 | 0.51 | 77 | 1016.3 |
| 20260506034558 | 15 | 271 | 1.6 | 8.0 | 0.00 | 0.51 | 0.51 | 77 | 1016.3 |
| 20260506034034 | 15 | 295 | 3.2 | 8.0 | 0.00 | 0.51 | 0.51 | 77 | 1016.2 |
| 20260506033534 | 15 | 269 | 1.6 | 6.4 | 0.00 | 0.51 | 0.51 | 77 | 1016.1 |
| 20260506033047 | 15 | 303 | 1.6 | 6.4 | 0.00 | 0.51 | 0.51 | 76 | 1016.1 |
| 20260506032531 | 15 | 319 | 1.6 | 6.4 | 0.00 | 0.51 | 0.51 | 76 | 1016.0 |
| 20260506032033 | 15 | 309 | 3.2 | 6.4 | 0.00 | 0.51 | 0.51 | 75 | 1016.0 |
| 20260506031555 | 15 | 288 | 1.6 | 6.4 | 0.00 | 0.51 | 0.51 | 75 | 1016.0 |
| 20260506031036 | 15 | 306 | 1.6 | 6.4 | 0.00 | 0.51 | 0.51 | 75 | 1015.9 |
| 20260506030532 | 15 | 308 | 1.6 | 9.7 | 0.00 | 0.51 | 0.51 | 75 | 1015.9 |
| 20260506030045 | 15 | 296 | 1.6 | 9.7 | 0.00 | 0.51 | 0.51 | 75 | 1015.8 |
| 20260506025534 | 15 | 259 | 3.2 | 9.7 | 0.00 | 0.51 | 0.51 | 75 | 1015.8 |
| 20260506025035 | 15 | 294 | 1.6 | 6.4 | 0.00 | 0.51 | 0.51 | 74 | 1015.8 |
| 20260506024546 | 15 | 315 | 1.6 | 6.4 | 0.00 | 0.51 | 0.51 | 74 | 1015.7 |
| 20260506024035 | 15 | 267 | 3.2 | 9.7 | 0.00 | 0.51 | 0.51 | 74 | 1015.6 |
| 20260506023535 | 15 | 279 | 3.2 | 11.3 | 0.00 | 0.51 | 0.51 | 74 | 1015.6 |
| 20260506023048 | 15 | 266 | 3.2 | 11.3 | 0.00 | 0.51 | 0.51 | 73 | 1015.4 |
| 20260506022532 | 15 | 296 | 4.8 | 11.3 | 0.00 | 0.51 | 0.51 | 73 | 1015.4 |
| 20260506022034 | 15 | 306 | 3.2 | 8.0 | 0.00 | 0.51 | 0.51 | 73 | 1015.4 |
| 20260506021550 | 15 | 321 | 3.2 | 14.5 | 0.00 | 0.51 | 0.51 | 73 | 1015.4 |
| 20260506021033 | 16 | 270 | 4.8 | 14.5 | 0.00 | 0.51 | 0.51 | 72 | 1015.4 |
| 20260506020536 | 16 | 275 | 4.8 | 11.3 | 0.00 | 0.51 | 0.51 | 72 | 1015.3 |
| 20260506020047 | 16 | 300 | 4.8 | 11.3 | 0.00 | 0.51 | 0.51 | 72 | 1015.2 |
| 20260506015535 | 16 | 298 | 4.8 | 11.3 | 0.00 | 0.51 | 0.51 | 71 | 1015.2 |